Location: Brno
(49.2000°N, 16.6330°E)
Time: 10:55:27
(UTC+01:00)

Daily predictions for brighter satellites

Satellite Brightness Start Highest point End
(mag) Time Altitude Azimuth Time Altitude Azimuth Time Altitude Azimuth
Cosmos 2181 Rocket 4.0 17:55:55 10° N 18:02:10 67° ENE 18:08:29 10° SSE
Cosmos 2237 Rocket 3.1 18:01:55 10° NNW 18:06:58 31° NE 18:12:00 10° ESE
Meteor 1-19 Rocket 4.3 18:02:58 10° N 18:08:41 75° ENE 18:14:28 10° SSE
Cosmos 2333 4.3 18:05:02 10° NNW 18:10:46 67° ENE 18:16:29 10° SE
Geosat 4.1 18:06:59 10° NNE 18:12:04 87° WNW 18:17:06 10° SSW
Cosmos 1709 Rocket 4.0 18:06:22 10° S 18:12:31 73° E 18:18:39 10° NNE
Cosmos 2237 4.3 18:07:22 10° NNW 18:13:09 87° WSW 18:18:52 10° SSE
COSMOS 2428 2.7 18:07:40 10° NNW 18:13:24 78° ENE 18:19:06 10° SSE
Cosmos 1023 Rocket 4.4 18:11:44 10° SSW 18:16:48 69° ESE 18:21:58 10° NNE
Resurs 01 Rocket 2.3 18:14:23 10° SE 18:18:23 35° ENE 18:22:23 10° N
Cosmos 2219 Rocket 2.4 18:12:58 10° NNW 18:18:28 52° NE 18:23:56 10° SE
Cosmos 2360 Rocket 3.3 18:13:37 10° NW 18:19:04 51° WSW 18:24:32 10° S
Meteor 2-4 Rocket 3.6 18:14:21 10° N 18:19:53 67° ENE 18:25:15 10° SSE
Cosmos 2184 Rocket 4.4 18:15:57 10° SSE 18:21:40 39° E 18:27:22 10° NNE
TSX-5 3.8 18:19:37 10° SW 18:22:45 63° NW 18:26:15 10° NNE
Resurs 1-3 4.2 18:23:07 10° SE 18:27:07 35° ENE 18:31:08 10° N
HJ-1C 3.7 18:24:04 10° SE 18:27:17 44° ENE 18:30:32 10° N
Meteor 1-23 Rocket 4.3 18:21:43 10° N 18:27:31 65° ENE 18:33:12 10° SSE
NOSS 0 Rocket 4.1 18:21:57 10° NNW 18:28:00 55° NE 18:34:01 10° SE
Gbstr 26 Del rocket 2.9 18:24:41 10° SW 18:28:24 51° SSE 18:31:29 14° ENE
Aureole 2 Rocket 4.4 18:29:46 10° NNE 18:31:19 13° NE 18:31:59 12° ENE
Cosmos 1025 Rocket 3.1 18:27:33 10° N 18:31:54 59° ENE 18:36:14 10° SSE
USA 229 DEB 3.9 18:25:00 10° NW 18:32:09 85° SW 18:39:23 10° SE
USA 229 3.9 18:25:05 10° NW 18:32:14 86° SW 18:39:29 10° SE
Cosmos 1892 Rocket 4.2 18:28:20 10° N 18:32:18 33° ENE 18:36:16 10° SE
Okean 1 Rocket 3.0 18:28:24 10° S 18:32:52 70° E 18:37:20 10° NNE
FREGAT/IRIS 2.6 18:29:48 10° SSE 18:32:53 90° SSW 18:36:00 10° NNW
Cosmos 2219 3.4 18:27:23 10° S 18:32:55 51° ESE 18:38:28 10° NE
Cosmos 2227 Rocket 3.5 18:30:32 10° SE 18:34:16 18° E 18:38:02 10° ENE
Cosmos 1763 Rocket 4.3 18:29:47 10° N 18:34:20 31° NE 18:38:21 13° ESE
Abrixas rocket 3.4 18:32:41 10° SW 18:35:38 29° SSE 18:37:32 17° ESE
Cosmos 405 Rocket 3.3 18:32:17 10° N 18:36:07 37° ENE 18:39:52 10° SE
SL-16 R/B 3.2 18:38:26 10° NNW 18:43:17 28° NE 18:46:31 17° E
SJ-6B 3.0 18:39:41 10° S 18:43:38 74° WSW 18:47:30 10° NNW
Cosmos 1741 Rocket 3.9 18:38:35 10° SSW 18:43:46 72° ESE 18:48:59 10° NNE
NOSS 3-1 (A) 4.2 18:37:26 10° NW 18:44:34 56° NE 18:51:32 14° ESE
H-2A R/B 2.8 18:41:52 10° SSE 18:45:29 50° ENE 18:49:10 10° N
USA 215 3.7 18:39:46 10° ENE 18:46:12 62° NNW 18:52:36 10° W
CZ-2D R/B 3.6 18:44:05 10° SE 18:47:41 41° ENE 18:51:18 10° N
Cosmos 614 Rocket 4.0 18:43:10 10° SSW 18:48:15 86° WNW 18:53:22 10° NNE
Cosmos 1238 Rocket 4.4 18:46:28 10° NNW 18:49:06 28° W 18:51:44 10° SSW
Cosmos 1140 Rocket 3.9 18:43:59 10° SSW 18:49:06 68° WNW 18:54:18 10° NNE
Cosmos 2285 Rocket 4.0 18:42:42 10° NNW 18:49:12 88° ENE 18:55:37 10° SSE
ATLAS 2AS CENTAUR R/B 4.0 18:42:16 10° NW 18:49:36 35° NNE 18:55:08 16° ENE
Cosmos 1437 3.3 18:51:31 10° N 18:54:38 37° ENE 18:56:04 24° SE
CZ-4B DEB 3.9 18:58:28 25° ENE 18:58:28 25° ENE 19:00:48 10° N
Cosmos 1544 Rocket 4.0 18:55:46 10° SSE 18:59:43 36° E 19:03:41 10° NNE
NOSS 3-1 (C) 4.0 18:54:50 10° NW 19:02:12 77° NE 19:09:26 14° SE
GEOS 3 Rocket 4.4 18:59:44 20° ENE 19:02:16 29° ESE 19:06:49 10° S
Okean 2 3.3 18:59:49 10° N 19:04:01 86° E 19:08:12 10° S
Cosmos 1441 Rocket 3.9 19:00:29 10° N 19:04:11 36° ENE 19:05:24 29° ESE
SAR-Lupe-1 4.2 19:02:16 20° SE 19:04:26 49° ENE 19:07:55 10° N
Cosmos 468 Rocket 4.0 18:59:24 10° NNW 19:04:41 86° ENE 19:09:58 10° SSE
SAR-Lupe-4 3.5 19:02:29 14° SSE 19:05:24 59° ENE 19:08:57 10° N
Spot 1 4.0 19:02:37 12° SSE 19:06:16 57° ENE 19:10:27 10° N
Cosmos 1980 3.6 19:01:08 10° NNW 19:06:49 76° ENE 19:12:00 12° SE
Cosmos 2333 Rocket 2.2 19:01:36 10° NNW 19:07:23 89° WSW 19:13:10 10° SSE
FENGYUN 3A 4.0 19:03:12 10° S 19:08:37 71° WSW 19:14:04 10° NNW
Cosmos 332 Rocket 4.1 19:04:34 10° NNW 19:09:20 46° ENE 19:11:38 27° ESE
Cosmos 1602 Rocket 4.4 19:06:38 10° N 19:10:34 30° ENE 19:11:01 30° E
Helios 1B rocket 2.9 19:09:33 10° NNE 19:13:26 37° E 19:17:17 10° SSE
Spot 2 Rocket 3.6 19:09:22 10° S 19:14:25 77° WSW 19:19:32 10° NNW
Cosmos 1536 3.8 19:11:11 10° SSW 19:15:03 49° WNW 19:18:57 10° N
Cosmos 1626 Rocket 4.2 19:11:09 10° N 19:15:16 34° ENE 19:15:49 33° E
USA 186 1.9 19:17:12 46° NNE 19:17:12 46° NNE 19:19:27 10° N
ALOS 3.1 19:13:55 10° S 19:18:28 52° W 19:23:03 10° NNW
Cosmos 371 Rocket 3.7 19:14:02 10° NNW 19:18:44 44° ENE 19:20:12 34° ESE
Cosmos 1939 Rocket 3.7 19:20:07 32° ENE 19:20:07 32° ENE 19:23:26 10° N
Helios 1A 2.8 19:16:36 15° SSE 19:19:58 75° ENE 19:24:08 10° N
ERS-1 Rocket 3.7 19:25:06 32° ENE 19:25:34 33° ENE 19:30:04 10° N
Cosmos 1814 Rocket 4.0 19:21:24 10° NNW 19:26:36 83° WSW 19:30:53 15° SSE
Envisat 3.1 19:28:58 34° SE 19:30:57 55° ENE 19:35:56 10° N
SJ-11-01 4.4 19:30:59 41° ESE 19:32:15 54° ENE 19:36:54 10° N
Cosmos 1610 Rocket 4.4 19:29:07 10° S 19:35:19 89° W 19:41:31 10° N
Cosmos 2082 3.9 19:31:14 10° S 19:36:41 47° ESE 19:40:05 22° NE
Cosmos 1455 Rocket 2.9 19:32:40 10° S 19:37:01 70° E 19:41:22 10° NNE
USA 32 3.9 19:32:14 10° N 19:37:28 65° E 19:40:05 29° SSE
Cosmos 1975 3.5 19:38:49 39° NE 19:38:49 39° NE 19:41:35 10° NNE
ARGOS 4.4 19:49:21 26° NE 19:49:21 26° NE 19:52:54 10° N
Cosmos 2237 Rocket 2.7 19:45:48 10° NW 19:51:24 58° WSW 19:55:25 19° S
Cosmos 1603 4.5 19:48:15 10° NNW 19:53:26 34° NE 19:53:27 34° NE
Resurs 01 Rocket 3.6 19:51:04 10° SSW 19:54:54 29° W 19:58:46 10° NW
Cosmos 2297 Rocket 2.1 19:51:29 10° S 19:56:59 58° ESE 19:56:59 58° ESE
Cosmos 1066 Rocket 4.2 19:51:22 10° NNW 19:57:03 83° W 19:59:58 29° S
Cosmos 1486 Rocket 3.9 19:55:54 10° SSW 20:01:13 77° ESE 20:06:32 10° NNE
Cosmos 1295 Rocket 4.4 19:55:14 10° S 20:01:25 68° E 20:07:42 10° NNE
Cosmos 2219 Rocket 3.9 19:57:22 10° NW 20:02:10 30° WSW 20:06:57 10° SSW
SL-8 Rocket 4.0 20:02:58 55° ESE 20:03:20 56° E 20:09:31 10° NNE
Cosmos 841 Rocket 3.7 20:01:21 10° NNW 20:06:28 66° WSW 20:07:56 45° S
Aureole 2 Rocket 4.1 20:03:55 10° NNW 20:05:49 29° NW 20:05:49 29° NW
Abrixas rocket 4.5 20:08:53 10° WSW 20:10:18 23° WSW 20:10:18 23° WSW
Meteor 1-12 Rocket 4.5 20:07:39 10° SSW 20:13:37 74° WNW 20:19:31 10° N
Gbstr 26 Del rocket 3.9 20:11:28 10° W 20:14:05 40° WNW 20:14:05 40° WNW
H-2A R/B 3.7 20:17:31 23° NNE 20:17:31 23° NNE 20:20:10 10° N
Cosmos 1763 Rocket 4.4 20:11:26 10° NW 20:16:19 45° WSW 20:18:26 29° SSW
Meteor 1-21 4.1 20:11:05 10° N 20:16:50 78° ENE 20:16:52 78° E
Cosmos 2227 Rocket 2.2 20:11:57 10° SSW 20:17:37 81° WNW 20:23:21 10° NNE
Cosmos 540 Rocket 3.6 20:13:18 10° NNW 20:17:46 64° N 20:17:46 64° N
SL-16 R/B 2.4 20:22:14 10° NNW 20:27:53 66° WSW 20:28:26 62° SSW
USA 215 4.0 20:26:32 35° NE 20:28:40 45° N 20:34:49 10° WNW
Cosmos 1943 4.4 20:26:56 10° NNW 20:30:43 30° NNE 20:30:43 30° NNE
SPOT 5 4.0 20:36:31 37° N 20:36:31 37° N 20:39:42 10° N
GEOS 3 Rocket 3.9 20:40:53 65° WNW 20:40:53 65° WNW 20:45:50 10° SW
ATLAS 2AS CENTAUR R/B 2.9 20:33:48 10° NW 20:41:59 74° NE 20:42:35 70° E
Cosmos 1727 Rocket 4.0 20:38:34 10° N 20:44:15 73° N 20:44:15 73° N
ERS-1 Rocket 4.3 21:05:06 36° WNW 21:05:06 36° WNW 21:09:01 10° NNW
Cosmos 2297 Rocket 4.2 21:36:27 10° WSW 21:47:17 - NNE 21:39:05 23° W
H-2A R/B 4.3 21:58:09 22° NNW 21:58:09 22° NNW 22:00:03 10° NNW
Cosmos 2227 Rocket 4.5 21:58:28 10° W 22:02:37 20° NW 22:06:47 10° N
ATLAS 2AS CENTAUR R/B 4.4 22:25:27 10° NW 22:30:02 29° W 22:30:02 29° W
